Location: Bouchavesnes-Bergen
(49.9859°N, 2.9203°E)
Time: 22:57:24
(UTC+00:00)

ALOS - Pass Details

Date: 09 March 2021
Orbit: 683 x 684 km, 97.9° (Epoch: 13 April)

Event Time Altitude Azimuth Distance (km) Brightness Sun altitude
Rises 03:55:29 0° 17° (NNE) 3,063 6.2 -22.8°
Reaches altitude 10° 03:57:48 10° 22° (NNE) 2,142 5.4 -22.5°
Maximum altitude 04:02:24 54° 100° (E) 832 2.9 -21.8°
Drops below altitude 10° 04:06:57 10° 178° (S) 2,125 4.6 -21.1°
Enters shadow 04:07:04 - 178° (S) 2,169 4.7 -21.1°
